Regional Weather Roundup
Issued by NWS

Home | Current Version | Previous Version | Graphics & Text | Print | Product List | Glossary On
Versions: 1 2 3 4 5 6 7 8 9 10 11 12 13 14 15 16 17 18 19 20 21 22 23 24 25 26 27 28 29 30 31 32 33 34 35 36 37 38 39 40 41 42 43 44 45 46 47 48 49 50
302
ASUS43 KLMK 072102
RWRKY
KENTUCKY REGIONAL WEATHER ROUNDUP
NATIONAL WEATHER SERVICE LOUISVILLE KY
400 PM EST WED DEC 07 2016

NOTE "FAIR" INDICATES FEW OR NO CLOUDS BELOW 12,000 FEET
WITH NO SIGNIFICANT WEATHER AND/OR OBSTRUCTIONS TO VISIBILITY.

KYZ001>023-026-027-061>063-070>075-072200-
WESTERN AND SOUTH CENTRAL KENTUCKY

CITY           SKY/WX    TMP DP  RH WIND       PRES   REMARKS
PADUCAH        CLOUDY    44  19  36 N7        30.17S
HENDERSON      MOSUNNY   43  21  42 NW8       30.18S
OWENSBORO      NOT AVBL
HOPKINSVILLE   SUNNY     46  23  40 VRB6      30.14S
BOWLING GREEN  SUNNY     49  23  36 MISG      30.15R
GLASGOW        NOT AVBL
$$

KYZ024-025-028>034-038-045-046-053-072200-
NORTH CENTRAL KENTUCKY

CITY           SKY/WX    TMP DP  RH WIND       PRES   REMARKS
LOUISVILLE/SDF NOT AVBL
LOUISVILLE/LOU CLOUDY    42  19  39 NW5       30.16R
FORT KNOX      CLOUDY    42  22  43 W3        30.13R
$$

KYZ035>037-039>044-047>052-055>060-089>105-072200-
NORTHEAST KENTUCKY

CITY           SKY/WX    TMP DP  RH WIND       PRES   REMARKS
LEXINGTON      CLOUDY    43  25  49 NW6       30.12R
COVINGTON      CLOUDY    38  23  55 W8        30.12S WCI  32
FRANKFORT      CLOUDY    42  24  49 NW3       30.12R
$$

KYZ054-064>069-076>088-106>120-072200-
SOUTHEAST KENTUCKY

CITY           SKY/WX    TMP DP  RH WIND       PRES   REMARKS
JACKSON        SUNNY     47  24  40 CALM      30.08S
LONDON         SUNNY     46  28  49 CALM      30.08S
SOMERSET       NOT AVBL
MIDDLESBORO    NOT AVBL
MONTICELLO     NOT AVBL
$$





USA.gov is the U.S. government's official web portal to all federal, state and local government web resources and services.